{"data":{"norad_id":55946,"intl_designator":"2023-037AJ","name":"STARLINK-5857","alt_names":[],"object_type":"PAYLOAD","status":"ACTIVE","operator":null,"country":"US","launch_date":"2023-03-17","launch_site_code":"AFWTR","launch_vehicle":null,"mission":null,"orbit_class":"UNKNOWN","rcs_meters":null,"size_class":null,"mass_kg":null,"dimensions":null,"purposes":["comms"],"wikipedia_slug":null,"has_3d_model":false,"image_url":null,"decayed_at":null,"tle_current":{"epoch":"2026-05-25T03:20:44.750976Z","epoch_age_seconds":63107,"freshness":"FRESH","line1":"1 55946U 23037AJ  26145.13940684  .00000748  00000+0  70433-4 0  9996","line2":"2 55946  69.9998  91.6205 0003025 273.2045  86.8768 14.98338978175429","mean_motion":14.98338978,"eccentricity":0.0003025,"inclination_deg":69.9998,"raan_deg":91.6205,"arg_perigee_deg":273.2045,"mean_anomaly_deg":86.8768,"bstar":7.0433e-5,"rev_number":17542,"period_min":96.106423255579,"perigee_km":569.92570240762,"apogee_km":574.13055230967,"semimajor_km":6950.1651273586,"source":"CELESTRAK","updated_at":"2026-05-25T13:38:17.917452Z"}}}